{"data":{"norad_id":51808,"epoch":"2026-09-20T01:20:13.358688Z","epoch_age_seconds":90247,"freshness":"FRESH","line1":"1 51808U 22017AS  26263.05571017 -.00025489  00000+0 -72695-3 0  9990","line2":"2 51808  53.1589 173.4646 0000787 125.0501 235.0575 15.35198760253486","mean_motion":15.3519876,"eccentricity":7.87e-5,"inclination_deg":53.1589,"raan_deg":173.4646,"arg_perigee_deg":125.0501,"mean_anomaly_deg":235.0575,"bstar":-0.00072695,"rev_number":25348,"period_min":93.798929332121,"perigee_km":459.7919992058,"apogee_km":460.86837394097,"semimajor_km":6838.4671865734,"source":"CELESTRAK","updated_at":"2026-09-20T09:00:39.942766Z"}}